{"data":{"norad_id":60302,"intl_designator":"2024-133B","name":"STARLINK-11128 [DTC]","alt_names":[],"object_type":"PAYLOAD","status":"ACTIVE","operator":null,"country":"US","launch_date":"2024-07-28","launch_site_code":"AFWTR","launch_vehicle":null,"mission":null,"orbit_class":"UNKNOWN","rcs_meters":null,"size_class":null,"mass_kg":null,"dimensions":null,"purposes":["comms"],"wikipedia_slug":null,"has_3d_model":false,"image_url":null,"decayed_at":null,"tle_current":{"epoch":"2026-05-25T05:32:56.907744Z","epoch_age_seconds":51111,"freshness":"FRESH","line1":"1 60302U 24133B   26145.23121421 -.00001526  00000+0 -77401-5 0  9997","line2":"2 60302  53.1589 129.0644 0001215  74.6459 285.4693 15.69697622105752","mean_motion":15.69697622,"eccentricity":0.0001215,"inclination_deg":53.1589,"raan_deg":129.0644,"arg_perigee_deg":74.6459,"mean_anomaly_deg":285.4693,"bstar":-7.7401e-6,"rev_number":10575,"period_min":91.737413615066,"perigee_km":358.94351700113,"apogee_km":360.58082649987,"semimajor_km":6737.8991717505,"source":"CELESTRAK","updated_at":"2026-05-25T13:38:19.227560Z"}}}